Temp
-15 -15 -15 -15 -15 -15 -15 -14 -14 -15 -15 -15 -15 -16 -15 -15 -15 -15 -15 -15 -15 -15 -15 -15 -15 -15 -14 -14 -14 -14 -14 -15 -14 -14 -14 -14 -14 -14 -14 -14 -14 -14 -14
-15 -15 -15 -16 -16 -16 -16 -16 -15 -15 -15 -15 -16 -16 -16 -16 -16 -16 -16 -15 -15 -16 -15 -15 -16 -15 -15 -15 -15 -15 -14 -15 -15 -15 -15 -15 -15 -15 -15 -15 -15 -15 -14
-15 -16 -16 -16 -17 -17 -17 -17 -16 -16 -15 -16 -17 -17 -17 -16 -16 -16 -16 -16 -16 -16 -16 -16 -16 -15 -15 -15 -15 -15 -15 -15 -15 -15 -15 -15 -15 -16 -15 -16 -15 -15 -15
-15 -16 -17 -17 -18 -18 -18 -18 -17 -17 -17 -17 -17 -17 -17 -17 -17 -17 -17 -16 -16 -17 -16 -16 -16 -16 -16 -15 -15 -16 -16 -16 -16 -16 -16 -16 -16 -16 -16 -16 -16 -16 -16
-16 -17 -18 -18 -18 -19 -18 -18 -18 -18 -17 -18 -18 -18 -17 -17 -17 -17 -17 -17 -16 -16 -17 -16 -16 -16 -16 -16 -16 -16 -16 -16 -16 -16 -16 -16 -16 -16 -16 -16 -16 -16 -16
-18 -18 -19 -19 -19 -19 -18 -18 -18 -19 -19 -18 -18 -18 -18 -18 -18 -17 -17 -17 -17 -16 -17 -16 -17 -16 -17 -16 -16 -16 -16 -16 -16 -16 -16 -16 -16 -17 -17 -17 -17 -16 -16
-19 -19 -19 -19 -19 -18 -18 -18 -18 -18 -19 -19 -19 -18 -18 -19 -18 -17 -17 -17 -17 -17 -17 -17 -17 -17 -17 -17 -17 -17 -16 -16 -16 -16 -17 -17 -17 -17 -17 -17 -17 -17 -17
-20 -20 -20 -19 -19 -19 -19 -19 -18 -18 -19 -19 -18 -20 -18 -17 -17 -17 -17 -16 -18 -18 -17 -17 -17 -17 -17 -17 -17 -17 -17 -17 -17 -17 -16 -17 -17 -17 -17 -17 -17 -17 -17
-20 -20 -20 -20 -20 -19 -20 -19 -19 -19 -18 -20 -19 -19 -19 -19 -18 -17 -17 -18 -17 -17 -17 -17 -17 -17 -17 -17 -17 -17 -17 -17 -17 -17 -17 -17 -17 -17 -17 -17 -17 -17 -17
-21 -21 -21 -21 -21 -20 -20 -20 -19 -19 -19 -19 -20 -19 -19 -20 -19 -18 -17 -17 -17 -17 -17 -17 -17 -17 -18 -18 -17 -17 -17 -17 -17 -17 -17 -17 -18 -18 -17 -18 -18 -18 -18
-22 -22 -21 -21 -21 -21 -21 -21 -20 -20 -20 -20 -20 -20 -19 -19 -19 -20 -19 -18 -18 -18 -18 -18 -18 -17 -18 -18 -18 -17 -18 -18 -18 -18 -18 -18 -18 -19 -19 -18 -18 -19 -19
-22 -22 -22 -22 -21 -22 -21 -21 -21 -21 -20 -20 -20 -21 -20 -20 -19 -19 -20 -21 -20 -19 -19 -18 -19 -19 -19 -18 -18 -18 -18 -18 -19 -19 -19 -19 -19 -20 -19 -19 -19 -19 -18
-24 -23 -23 -23 -22 -22 -22 -22 -22 -22 -21 -21 -21 -21 -21 -21 -21 -20 -21 -21 -21 -21 -21 -20 -20 -20 -19 -20 -19 -20 -19 -19 -19 -19 -19 -19 -19 -20 -20 -20 -20 -20 -19
-25 -24 -24 -23 -23 -23 -22 -22 -22 -22 -22 -22 -22 -22 -21 -21 -21 -21 -21 -20 -20 -21 -21 -20 -21 -21 -20 -20 -20 -20 -20 -20 -20 -20 -20 -20 -20 -21 -21 -20 -20 -19 -20
-25 -25 -25 -24 -24 -24 -23 -23 -23 -23 -23 -23 -22 -22 -22 -22 -22 -22 -21 -21 -21 -21 -21 -21 -20 -20 -21 -21 -21 -21 -20 -20 -21 -21 -21 -21 -21 -21 -20 -20 -20 -21 -20
-26 -26 -25 -25 -25 -24 -24 -24 -24 -23 -23 -23 -23 -23 -23 -23 -22 -22 -22 -22 -22 -22 -22 -21 -21 -21 -22 -22 -22 -21 -21 -21 -21 -21 -21 -21 -21 -21 -21 -21 -21 -21 -21
-26 -26 -25 -25 -25 -25 -25 -24 -24 -24 -24 -24 -23 -23 -23 -23 -23 -23 -23 -23 -23 -23 -23 -22 -22 -22 -22 -22 -22 -22 -22 -22 -21 -21 -21 -21 -21 -22 -21 -21 -21 -21 -22
-26 -26 -26 -26 -26 -25 -25 -25 -25 -25 -24 -24 -24 -24 -24 -24 -24 -24 -23 -23 -23 -23 -23 -23 -23 -23 -23 -23 -23 -22 -22 -21 -22 -21 -21 -21 -21 -21 -21 -21 -21 -21 -22
-27 -27 -27 -27 -27 -27 -26 -26 -26 -25 -25 -25 -25 -25 -25 -24 -24 -24 -24 -24 -24 -24 -23 -23 -23 -23 -23 -23 -23 -23 -23 -23 -22 -22 -22 -22 -22 -22 -22 -22 -21 -21 -21
-29 -29 -28 -28 -28 -27 -27 -27 -27 -27 -26 -26 -26 -26 -26 -25 -25 -25 -25 -25 -24 -24 -24 -24 -24 -24 -24 -24 -24 -23 -23 -23 -23 -23 -23 -23 -23 -22 -22 -22 -22 -22 -22
-31 -30 -30 -30 -29 -29 -28 -28 -28 -27 -27 -27 -27 -26 -26 -26 -26 -26 -26 -26 -25 -25 -25 -25 -25 -25 -24 -24 -25 -24 -24 -24 -23 -23 -23 -23 -23 -23 -23 -23 -23 -22 -22
-33 -32 -32 -32 -31 -31 -30 -30 -30 -30 -29 -29 -28 -28 -28 -28 -27 -26 -26 -26 -26 -26 -26 -26 -26 -25 -25 -25 -25 -25 -25 -25 -24 -24 -24 -24 -24 -24 -24 -24 -24 -24 -23
-34 -33 -33 -33 -32 -32 -31 -31 -31 -31 -30 -30 -30 -30 -29 -29 -29 -28 -28 -27 -27 -27 -27 -27 -26 -27 -27 -26 -26 -26 -26 -26 -26 -25 -25 -25 -25 -25 -25 -25 -25 -25 -24
-34 -34 -34 -33 -33 -33 -33 -33 -33 -32 -32 -32 -32 -31 -31 -30 -30 -30 -30 -30 -29 -28 -28 -28 -28 -28 -27 -27 -27 -27 -27 -27 -27 -27 -27 -27 -26 -26 -26 -26 -26 -26 -25
-35 -35 -34 -35 -35 -35 -35 -35 -35 -35 -35 -35 -35 -35 -34 -34 -33 -32 -32 -32 -32 -31 -31 -30 -29 -29 -29 -29 -28 -28 -27 -28 -28 -28 -28 -28 -28 -27 -27 -26 -26 -26 -26
-35 -35 -35 -35 -36 -36 -36 -36 -37 -37 -37 -37 -37 -37 -36 -36 -35 -35 -35 -34 -34 -33 -33 -33 -33 -32 -32 -31 -30 -30 -30 -30 -30 -30 -29 -29 -29 -28 -27 -27 -27 -27 -28
Height
5633 5636 5641 5646 5649 5654 5657 5660 5663 5667 5672 5675 5679 5684 5689 5693 5695 5698 5702 5706 5709 5712 5715 5719 5723 5727 5731 5735 5739 5742 5745 5748 5752 5755 5757 5760 5762 5765 5767 5770 5772 5775 5778
5618 5619 5622 5627 5632 5637 5641 5645 5650 5653 5656 5660 5665 5670 5675 5679 5683 5686 5690 5694 5698 5701 5703 5708 5712 5716 5720 5724 5729 5732 5736 5740 5742 5746 5747 5750 5753 5756 5759 5761 5763 5765 5767
5602 5603 5604 5607 5612 5618 5623 5628 5633 5637 5641 5645 5650 5656 5661 5665 5670 5674 5679 5683 5686 5689 5692 5695 5700 5704 5708 5714 5718 5721 5725 5728 5731 5734 5737 5739 5744 5747 5749 5751 5753 5755 5757
5583 5584 5587 5590 5594 5599 5604 5610 5616 5621 5626 5631 5635 5639 5645 5651 5657 5661 5666 5670 5675 5678 5680 5684 5688 5692 5697 5701 5706 5709 5713 5716 5720 5723 5726 5729 5733 5735 5738 5740 5743 5745 5747
5567 5570 5571 5574 5577 5583 5588 5592 5598 5604 5611 5615 5620 5625 5631 5636 5642 5647 5652 5655 5660 5666 5668 5672 5677 5680 5684 5688 5692 5696 5701 5703 5707 5711 5714 5717 5720 5723 5726 5729 5731 5733 5735
5554 5555 5558 5560 5563 5567 5573 5578 5581 5586 5593 5599 5605 5610 5615 5621 5626 5632 5635 5640 5645 5650 5655 5659 5663 5667 5671 5675 5679 5684 5688 5691 5694 5697 5701 5704 5707 5711 5713 5715 5717 5720 5722
5543 5544 5547 5549 5552 5554 5558 5563 5566 5570 5576 5583 5589 5594 5599 5605 5611 5617 5620 5623 5629 5633 5639 5644 5648 5653 5656 5661 5665 5669 5673 5676 5679 5683 5687 5690 5692 5695 5699 5701 5704 5707 5709
5533 5533 5535 5538 5539 5541 5543 5547 5550 5553 5558 5563 5568 5575 5584 5589 5596 5599 5604 5607 5614 5616 5620 5626 5631 5636 5641 5645 5650 5654 5657 5661 5665 5668 5671 5675 5679 5681 5684 5687 5690 5692 5695
5522 5523 5524 5524 5525 5526 5527 5532 5535 5538 5542 5548 5554 5559 5566 5573 5580 5584 5588 5594 5595 5599 5605 5609 5615 5620 5624 5629 5633 5636 5641 5645 5649 5653 5657 5660 5664 5665 5669 5672 5674 5677 5679
5511 5512 5512 5512 5512 5514 5514 5517 5521 5523 5527 5531 5536 5543 5548 5554 5561 5568 5571 5577 5582 5585 5588 5592 5597 5603 5608 5612 5616 5620 5625 5630 5633 5637 5640 5643 5647 5649 5652 5656 5658 5660 5663
5501 5500 5501 5502 5502 5501 5503 5504 5507 5510 5513 5517 5521 5526 5532 5537 5541 5547 5554 5560 5565 5570 5575 5577 5579 5584 5590 5594 5598 5602 5607 5611 5615 5619 5622 5626 5628 5630 5635 5638 5640 5642 5645
5489 5490 5490 5490 5491 5491 5491 5493 5494 5497 5500 5504 5509 5511 5515 5520 5525 5529 5533 5539 5545 5551 5557 5561 5564 5567 5571 5576 5579 5583 5588 5592 5596 5600 5603 5606 5609 5613 5617 5620 5623 5624 5627
5478 5478 5479 5479 5479 5479 5480 5481 5482 5484 5486 5489 5492 5497 5501 5503 5507 5512 5517 5522 5526 5531 5537 5542 5546 5550 5554 5558 5560 5563 5568 5572 5576 5580 5584 5587 5590 5594 5597 5600 5604 5606 5609
5466 5466 5466 5467 5467 5468 5468 5468 5470 5471 5473 5475 5478 5481 5484 5488 5492 5495 5499 5504 5508 5512 5517 5521 5526 5530 5534 5538 5543 5546 5550 5553 5557 5560 5564 5567 5570 5573 5577 5580 5584 5586 5590
5454 5454 5454 5454 5455 5454 5455 5456 5456 5457 5459 5461 5463 5465 5468 5470 5473 5475 5478 5482 5486 5490 5495 5500 5504 5508 5512 5516 5520 5524 5528 5531 5535 5538 5542 5547 5550 5554 5558 5560 5563 5565 5569
5442 5442 5442 5442 5441 5441 5440 5441 5442 5443 5443 5444 5446 5449 5451 5452 5455 5457 5460 5462 5465 5469 5473 5478 5482 5486 5490 5494 5496 5500 5504 5507 5512 5516 5520 5525 5528 5532 5535 5539 5542 5545 5548
5427 5427 5427 5427 5427 5427 5426 5426 5425 5426 5427 5428 5429 5430 5432 5434 5437 5439 5441 5444 5446 5449 5452 5456 5460 5465 5469 5472 5474 5477 5481 5485 5489 5493 5498 5502 5506 5509 5512 5516 5519 5522 5526
5412 5410 5409 5408 5409 5409 5410 5409 5409 5408 5409 5410 5411 5412 5413 5414 5416 5419 5421 5424 5427 5430 5433 5436 5439 5442 5445 5448 5450 5453 5456 5462 5467 5472 5476 5479 5482 5486 5488 5491 5495 5501 5503
5396 5394 5392 5390 5388 5388 5388 5389 5390 5390 5391 5390 5390 5392 5393 5394 5395 5397 5399 5401 5405 5408 5411 5414 5417 5420 5424 5426 5427 5429 5432 5436 5441 5446 5450 5454 5458 5461 5464 5467 5471 5475 5479
5380 5378 5375 5373 5371 5369 5368 5366 5366 5366 5369 5370 5370 5369 5370 5371 5373 5374 5376 5378 5381 5384 5387 5390 5394 5397 5401 5403 5405 5406 5409 5414 5418 5421 5426 5429 5433 5435 5439 5442 5447 5453 5456
5364 5361 5357 5353 5351 5350 5349 5345 5343 5341 5343 5343 5344 5344 5346 5347 5347 5350 5352 5354 5357 5360 5363 5366 5369 5373 5376 5379 5381 5383 5386 5391 5395 5399 5402 5406 5410 5413 5416 5418 5422 5428 5427
5351 5347 5342 5337 5333 5330 5328 5323 5319 5319 5318 5316 5314 5314 5316 5318 5320 5323 5324 5327 5331 5335 5337 5340 5344 5347 5350 5352 5355 5358 5361 5365 5370 5374 5378 5383 5386 5389 5390 5392 5397 5400 5400
5340 5334 5329 5321 5314 5310 5305 5300 5295 5294 5292 5289 5286 5285 5285 5286 5289 5294 5296 5299 5300 5304 5309 5314 5318 5321 5322 5325 5329 5332 5336 5339 5343 5348 5352 5356 5358 5361 5364 5368 5371 5372 5374
5329 5323 5315 5306 5296 5288 5280 5274 5269 5266 5263 5260 5257 5256 5256 5257 5258 5260 5264 5268 5271 5275 5279 5283 5287 5290 5293 5298 5300 5304 5310 5314 5317 5319 5321 5325 5330 5335 5339 5341 5344 5347 5350
5317 5310 5302 5292 5280 5270 5260 5253 5248 5244 5239 5236 5232 5231 5231 5230 5231 5233 5235 5237 5240 5244 5248 5252 5256 5260 5263 5265 5270 5277 5283 5284 5287 5287 5291 5297 5302 5307 5311 5315 5318 5320 5323
5307 5300 5291 5281 5269 5257 5246 5237 5231 5226 5221 5217 5213 5211 5209 5207 5207 5208 5209 5210 5213 5215 5219 5223 5225 5228 5232 5235 5242 5247 5250 5253 5255 5253 5260 5268 5274 5279 5284 5287 5290 5292 5294
Wind_Speed
54 54 56 58 58 58 60 61 60 59 59 61 62 61 57 56 55 54 51 49 49 48 47 46 45 47 48 51 54 54 50 44 46 47 47 46 45 44 44 44 42 42 42
51 52 54 56 59 60 60 61 63 64 63 63 63 61 58 57 57 55 54 52 51 49 48 48 47 48 49 52 52 52 53 50 48 47 48 48 48 47 47 46 46 46 45
53 55 56 57 60 61 60 61 64 65 66 66 64 63 61 60 58 57 55 55 53 51 50 49 49 49 50 52 55 54 53 52 50 49 49 49 48 47 48 48 48 48 48
54 54 55 58 58 62 62 62 66 67 67 68 68 66 64 62 60 57 57 57 58 58 54 48 48 51 52 53 54 55 54 53 52 51 51 51 51 50 50 50 50 50 51
50 49 51 55 58 61 63 65 65 67 68 68 69 68 67 65 63 64 59 61 61 61 57 60 61 54 55 56 56 56 57 57 56 55 55 54 54 53 53 53 52 53 54
44 44 45 45 53 60 64 64 66 67 68 69 67 67 67 67 66 65 70 65 65 67 68 64 62 66 63 59 57 58 59 59 59 59 58 57 57 56 55 55 56 56 56
38 40 47 43 45 58 64 68 64 68 69 70 71 68 70 69 65 60 69 72 68 68 69 67 69 68 65 62 63 64 64 63 63 63 63 62 61 60 60 59 58 58 58
35 36 39 45 44 48 56 65 65 67 70 71 77 76 73 70 64 68 68 63 70 72 74 73 74 72 72 72 71 71 70 70 68 70 69 66 66 66 65 64 63 62 62
36 36 37 41 40 47 45 63 66 66 70 73 75 78 76 77 74 72 72 72 74 73 72 74 75 75 75 76 75 76 78 77 75 75 74 71 73 70 70 69 68 67 67
36 37 36 40 37 43 41 50 65 63 74 76 73 73 77 82 76 78 75 80 74 62 73 70 76 80 78 77 76 78 78 80 77 75 74 72 74 75 72 73 73 72 71
36 35 37 37 34 31 34 38 42 54 63 77 73 72 73 77 85 85 82 83 85 82 76 71 71 79 79 79 79 80 80 79 77 80 78 81 79 76 78 78 77 77 75
36 39 38 38 38 35 32 36 36 39 47 57 76 75 74 77 80 81 88 84 83 84 87 88 83 83 84 83 84 82 81 81 81 83 83 87 78 76 81 82 82 82 81
42 41 41 41 41 41 41 38 38 38 42 48 52 66 79 78 76 78 80 81 84 87 88 88 87 87 84 82 84 85 87 88 88 90 89 82 79 81 83 84 83 82 79
43 45 45 46 46 46 45 45 44 43 43 45 47 48 52 57 65 74 79 83 84 86 86 87 89 90 92 89 88 85 85 85 78 83 86 85 80 80 82 83 83 82 78
39 41 45 49 51 51 50 51 52 50 48 49 50 50 51 53 56 59 65 70 76 82 85 87 88 89 89 88 88 88 90 91 92 89 83 79 80 80 83 84 85 79 74
44 45 46 47 49 52 54 55 56 57 58 56 53 54 55 54 55 56 60 65 69 72 75 77 79 78 80 83 84 85 86 86 87 88 88 88 89 89 88 87 81 76 74
53 53 52 53 53 53 55 57 58 59 62 63 63 62 61 61 60 60 61 61 63 65 70 74 77 79 78 80 81 82 83 84 86 86 85 85 87 87 86 85 83 81 80
59 58 59 59 58 57 58 60 62 64 65 65 67 69 69 68 67 67 66 67 67 68 68 69 70 73 76 78 80 83 84 86 85 85 85 86 86 86 84 85 82 83 83
54 56 59 60 62 61 60 62 64 66 68 69 70 71 71 74 75 75 74 73 72 72 73 73 74 73 72 74 77 79 82 84 85 86 85 85 85 85 85 86 84 84 84
54 56 59 62 64 66 67 68 69 70 70 72 75 76 76 77 77 78 80 79 79 79 78 76 76 76 77 77 77 77 78 79 80 84 85 85 86 86 88 90 91 89 89
46 49 52 57 62 66 70 73 76 79 79 79 80 81 83 83 82 81 82 82 83 84 83 83 82 81 80 79 79 79 81 81 81 81 80 82 82 83 86 88 90 90 91
37 41 45 50 55 58 61 65 68 71 76 81 82 82 83 84 87 89 88 87 86 86 87 88 87 86 85 85 84 83 83 83 84 85 86 86 85 86 86 87 87 88 91
35 39 43 48 54 58 62 66 70 72 74 76 78 82 84 85 86 87 90 93 92 92 91 91 90 90 90 90 90 89 88 87 87 86 85 86 88 89 90 90 89 89 90
33 37 41 47 51 53 56 59 62 65 69 72 76 80 82 85 87 87 87 87 91 95 96 95 94 93 94 94 94 94 92 90 89 89 89 89 89 89 89 90 90 91 92
34 37 41 46 48 47 47 49 50 50 52 55 60 65 69 74 78 82 84 85 85 86 89 92 94 96 96 95 96 96 95 96 94 94 94 93 93 93 93 93 94 94 95
33 36 40 45 47 44 43 42 39 38 40 43 45 47 51 56 62 67 72 76 78 80 81 82 85 87 89 92 93 93 94 95 95 98 97 95 95 97 97 98 98 98 97
Wind_Direction
256 256 253 251 251 250 250 247 242 242 241 239 241 242 239 237 236 235 235 236 237 238 238 238 236 233 231 231 229 230 233 236 235 236 237 237 238 238 239 240 240 240 240
258 258 257 254 250 248 247 247 245 240 236 237 238 239 237 235 234 235 235 235 236 235 237 237 236 234 231 229 228 229 234 236 236 238 240 240 241 242 243 245 245 245 244
259 257 255 253 249 245 242 243 240 239 238 234 234 235 235 235 234 234 235 236 234 233 237 237 236 233 231 229 229 231 232 234 236 239 242 243 244 246 246 247 248 248 249
265 263 258 256 250 244 239 236 238 236 235 234 232 232 233 234 236 234 235 235 235 234 232 235 239 237 233 231 232 233 235 237 239 241 244 246 247 249 250 251 252 253 252
266 260 254 250 246 242 240 235 233 235 234 232 233 233 234 234 234 235 238 233 232 235 231 234 233 237 236 236 235 236 237 239 241 243 245 247 249 250 251 253 254 254 254
261 257 245 247 242 240 238 239 234 231 233 233 232 232 234 234 233 232 239 232 232 232 235 237 235 236 235 239 242 243 244 243 245 245 247 248 250 252 253 254 256 256 256
256 254 245 245 242 242 238 239 238 231 230 231 232 232 232 231 228 234 234 236 234 233 235 236 236 232 237 243 243 243 247 248 249 250 249 250 251 252 253 254 256 258 257
253 255 249 244 246 240 240 236 238 237 229 232 232 227 231 231 225 231 230 229 232 231 233 234 236 234 237 241 243 242 243 246 248 249 251 252 255 255 256 256 257 258 258
253 254 253 241 235 241 245 234 236 240 238 230 234 231 227 230 230 230 233 235 237 234 239 235 236 237 240 242 243 244 245 244 248 250 250 251 254 255 256 258 259 259 260
252 248 249 248 244 240 250 243 236 236 236 229 232 235 235 227 231 230 230 234 232 234 241 237 241 242 243 244 245 245 246 247 247 249 251 251 254 256 257 257 259 259 260
249 241 241 244 250 242 241 240 243 239 237 233 229 233 236 236 231 228 232 234 235 236 235 241 247 246 246 245 245 246 247 248 251 251 249 253 259 252 254 257 258 259 260
244 244 242 244 246 252 244 241 241 241 240 239 236 231 234 236 237 237 233 230 235 237 238 241 246 250 250 248 247 247 248 249 250 251 251 256 256 255 255 256 257 260 261
257 257 255 254 253 251 254 256 250 246 242 238 236 238 237 236 237 238 238 239 236 235 236 236 238 243 245 248 249 250 251 252 253 253 254 258 258 256 256 257 259 260 264
260 258 258 257 258 257 256 256 256 254 250 244 240 240 240 242 245 246 245 245 243 241 240 240 241 242 242 244 246 251 249 252 250 254 255 258 257 257 258 259 260 263 266
266 263 260 259 259 260 259 257 257 257 255 252 250 250 246 244 244 244 247 247 247 246 245 247 248 249 248 248 249 249 249 248 248 251 252 252 253 256 259 261 264 264 262
277 276 272 266 262 260 260 260 258 258 258 257 255 253 253 252 250 248 246 246 247 247 247 247 247 248 249 250 250 251 251 252 253 255 254 254 254 255 258 259 260 259 261
281 279 276 273 269 267 265 263 262 260 259 258 259 258 256 254 253 251 249 248 248 249 250 250 249 248 247 247 247 248 248 249 250 251 251 251 252 253 254 255 255 256 258
280 279 277 274 271 269 266 265 264 263 262 260 259 258 258 257 257 256 255 253 250 249 248 249 250 252 253 254 253 251 249 249 249 251 251 252 251 250 250 251 252 254 255
273 274 274 274 273 271 269 267 264 262 261 261 261 260 259 257 257 257 257 257 256 255 254 252 251 251 251 252 253 254 255 255 254 253 252 252 251 251 252 252 253 254 256
273 271 271 270 271 271 272 272 271 268 266 263 261 260 259 259 258 257 257 257 257 257 257 256 256 256 255 254 253 253 252 253 253 253 253 253 254 254 255 256 255 255 257
278 277 276 275 273 271 270 269 268 268 267 266 265 262 260 259 258 258 257 257 257 257 257 257 258 257 257 256 257 256 254 253 253 253 253 252 252 253 253 255 255 255 257
287 287 285 283 281 279 276 273 271 269 267 266 265 263 261 260 259 259 258 257 256 256 256 256 257 257 258 258 258 258 257 256 255 255 255 255 255 255 256 256 256 256 257
298 297 296 295 290 285 280 276 273 270 268 266 264 263 263 263 260 258 257 257 258 257 256 256 256 257 257 258 258 258 258 258 258 257 257 256 256 257 258 259 259 259 259
308 310 313 310 304 296 289 282 276 272 269 266 264 263 262 261 262 261 260 258 257 257 258 257 257 256 256 256 256 257 257 258 259 259 258 257 257 257 258 258 259 260 261
318 320 324 326 319 310 302 295 288 282 277 273 270 267 265 263 262 262 261 261 260 258 257 257 257 256 256 257 257 257 258 258 258 258 257 257 257 258 259 259 260 261 261
326 328 331 334 331 322 314 308 299 293 286 280 276 273 270 267 264 262 261 260 260 259 259 258 257 256 256 256 257 257 257 258 258 259 259 259 260 260 260 261 262 262 263